Time,TemperatureF,DewpointF,PressureIn,WindDirection,WindDirectionDegrees,WindSpeedMPH,WindSpeedGustMPH,Humidity,HourlyPrecipIn,Conditions,Clouds,dailyrainin,SoftwareType,DateUTC
2013-06-28 00:01:00,74.6,72.8,29.83,West,280,0.0,3.0,94,0.00,RA,,0.00,WeatherDisplay:10.37,2013-06-28 04:01:00,
2013-06-28 00:10:00,74.2,72.4,29.83,West,280,0.0,1.0,94,0.00,SCT,,0.00,WeatherDisplay:10.37,2013-06-28 04:10:00,
2013-06-28 00:20:00,73.9,72.3,29.83,West,280,0.0,0.0,95,0.00,SCT,,0.00,WeatherDisplay:10.37,2013-06-28 04:20:00,
2013-06-28 00:31:00,73.6,72.1,29.83,West,280,0.0,3.0,95,0.00,SCT,,0.00,WeatherDisplay:10.37,2013-06-28 04:31:00,
2013-06-28 00:40:00,73.3,71.8,29.82,West,280,0.0,0.0,95,0.00,CLR,,0.00,WeatherDisplay:10.37,2013-06-28 04:40:00,
2013-06-28 00:50:00,73.1,71.6,29.82,West,280,0.0,1.0,95,0.00,CLR,,0.00,WeatherDisplay:10.37,2013-06-28 04:50:00,
2013-06-28 01:01:00,72.9,71.7,29.82,West,280,0.0,0.0,96,0.00,CLR,,0.00,WeatherDisplay:10.37,2013-06-28 05:01:00,
2013-06-28 01:10:00,72.8,71.6,29.82,West,280,0.0,0.0,96,0.00,CLR,,0.00,WeatherDisplay:10.37,2013-06-28 05:10:00,
2013-06-28 01:20:00,72.8,71.6,29.82,West,280,0.0,0.0,96,0.00,CLR,,0.00,WeatherDisplay:10.37,2013-06-28 05:20:00,
2013-06-28 01:31:00,72.8,71.6,29.81,West,280,0.0,2.0,96,0.00,CLR,,0.00,WeatherDisplay:10.37,2013-06-28 05:31:00,
2013-06-28 01:40:00,72.8,71.6,29.81,West,280,0.0,1.0,96,0.00,CLR,,0.00,WeatherDisplay:10.37,2013-06-28 05:40:00,
2013-06-28 01:50:00,72.8,71.6,29.81,West,280,0.0,0.0,96,0.00,CLR,,0.00,WeatherDisplay:10.37,2013-06-28 05:50:00,
2013-06-28 02:01:00,72.7,71.5,29.81,West,280,0.0,0.0,96,0.00,CLR,,0.00,WeatherDisplay:10.37,2013-06-28 06:01:00,
2013-06-28 02:10:00,72.4,71.2,29.80,West,280,0.0,3.0,96,0.00,CLR,,0.00,WeatherDisplay:10.37,2013-06-28 06:10:00,
2013-06-28 02:20:00,72.2,71.0,29.81,West,280,0.0,1.0,96,0.00,CLR,,0.00,WeatherDisplay:10.37,2013-06-28 06:20:00,
2013-06-28 02:31:00,71.9,70.7,29.81,West,280,0.0,0.0,96,0.00,CLR,,0.00,WeatherDisplay:10.37,2013-06-28 06:31:00,
2013-06-28 02:40:00,71.9,71.0,29.82,West,280,0.0,1.0,97,0.00,CLR,,0.00,WeatherDisplay:10.37,2013-06-28 06:40:00,
2013-06-28 02:50:00,71.9,71.0,29.81,West,280,0.0,0.0,97,0.00,CLR,,0.00,WeatherDisplay:10.37,2013-06-28 06:50:00,
2013-06-28 03:01:00,71.7,70.8,29.81,West,280,0.0,0.0,97,0.00,CLR,,0.00,WeatherDisplay:10.37,2013-06-28 07:01:00,
2013-06-28 03:10:00,71.5,70.3,29.81,West,280,0.0,0.0,96,0.00,CLR,,0.00,WeatherDisplay:10.37,2013-06-28 07:10:00,
2013-06-28 03:20:00,71.4,70.5,29.81,West,280,0.0,0.0,97,0.00,CLR,,0.00,WeatherDisplay:10.37,2013-06-28 07:20:00,
2013-06-28 03:31:00,71.5,70.6,29.81,West,280,0.0,0.0,97,0.00,CLR,,0.00,WeatherDisplay:10.37,2013-06-28 07:31:00,
2013-06-28 03:40:00,71.5,70.6,29.81,West,280,1.0,3.0,97,0.00,CLR,,0.00,WeatherDisplay:10.37,2013-06-28 07:40:00,
2013-06-28 03:50:00,71.4,70.5,29.81,West,280,0.0,2.0,97,0.00,CLR,,0.00,WeatherDisplay:10.37,2013-06-28 07:50:00,
2013-06-28 04:01:00,71.3,70.4,29.80,West,280,0.0,1.0,97,0.00,CLR,,0.00,WeatherDisplay:10.37,2013-06-28 08:01:00,
2013-06-28 04:10:00,71.2,70.4,29.80,West,280,0.0,0.0,97,0.00,CLR,,0.00,WeatherDisplay:10.37,2013-06-28 08:10:00,
2013-06-28 04:20:00,71.2,70.3,29.80,West,280,0.0,0.0,97,0.00,CLR,,0.00,WeatherDisplay:10.37,2013-06-28 08:20:00,
2013-06-28 04:31:00,71.3,70.4,29.80,West,280,0.0,0.0,97,0.00,CLR,,0.00,WeatherDisplay:10.37,2013-06-28 08:31:00,
2013-06-28 04:40:00,71.3,70.4,29.79,West,280,0.0,0.0,97,0.00,CLR,,0.00,WeatherDisplay:10.37,2013-06-28 08:40:00,
2013-06-28 04:50:00,71.3,70.4,29.80,West,280,0.0,0.0,97,0.00,CLR,,0.00,WeatherDisplay:10.37,2013-06-28 08:50:00,
2013-06-28 05:01:00,71.2,70.3,29.80,West,280,0.0,0.0,97,0.01,RA,,0.01,WeatherDisplay:10.37,2013-06-28 09:01:00,
2013-06-28 05:10:00,71.1,70.2,29.79,West,280,0.0,0.0,97,0.00,CLR,,0.01,WeatherDisplay:10.37,2013-06-28 09:10:00,
2013-06-28 05:20:00,70.9,70.0,29.79,West,280,0.0,0.0,97,0.00,CLR,,0.01,WeatherDisplay:10.37,2013-06-28 09:20:00,
2013-06-28 05:31:00,70.7,69.8,29.80,West,280,0.0,0.0,97,0.00,CLR,,0.01,WeatherDisplay:10.37,2013-06-28 09:31:00,
2013-06-28 05:40:00,70.6,69.7,29.79,West,280,0.0,0.0,97,0.00,SCT,,0.01,WeatherDisplay:10.37,2013-06-28 09:40:00,
2013-06-28 05:50:00,70.5,69.6,29.78,West,280,0.0,0.0,97,0.00,SCT,,0.01,WeatherDisplay:10.37,2013-06-28 09:50:00,
2013-06-28 06:01:00,70.5,69.6,29.79,West,280,0.0,1.0,97,0.00,SCT,,0.01,WeatherDisplay:10.37,2013-06-28 10:01:00,
2013-06-28 06:10:00,70.4,69.5,29.79,West,280,0.0,1.0,97,0.00,OVC,,0.01,WeatherDisplay:10.37,2013-06-28 10:10:00,
2013-06-28 06:20:00,70.2,69.3,29.79,SSW,208,0.0,0.0,97,0.00,OVC,,0.01,WeatherDisplay:10.37,2013-06-28 10:20:00,
2013-06-28 06:31:00,70.1,69.2,29.79,SSW,208,0.0,1.0,97,0.00,OVC,,0.01,WeatherDisplay:10.37,2013-06-28 10:31:00,
2013-06-28 06:40:00,69.8,68.9,29.79,SSW,208,0.0,2.0,97,0.00,OVC,,0.01,WeatherDisplay:10.37,2013-06-28 10:40:00,
2013-06-28 06:50:00,69.7,68.8,29.80,SSW,208,0.0,0.0,97,0.00,OVC,,0.01,WeatherDisplay:10.37,2013-06-28 10:50:00,
2013-06-28 07:01:00,69.7,69.1,29.80,SSW,208,0.0,0.0,98,0.00,OVC,,0.01,WeatherDisplay:10.37,2013-06-28 11:01:00,
2013-06-28 07:10:00,69.9,69.3,29.80,SSW,208,0.0,1.0,98,0.00,OVC,,0.01,WeatherDisplay:10.37,2013-06-28 11:10:00,
2013-06-28 07:20:00,70.2,69.6,29.80,SSW,209,0.0,0.0,98,0.00,OVC,,0.01,WeatherDisplay:10.37,2013-06-28 11:20:00,
2013-06-28 07:31:00,70.5,69.9,29.81,SSW,209,1.0,3.0,98,0.00,OVC,,0.01,WeatherDisplay:10.37,2013-06-28 11:31:00,
2013-06-28 07:40:00,70.8,70.2,29.81,SSW,207,0.0,2.0,98,0.00,OVC,,0.01,WeatherDisplay:10.37,2013-06-28 11:40:00,
2013-06-28 07:50:00,71.2,70.6,29.81,SSW,204,0.0,0.0,98,0.00,OVC,,0.01,WeatherDisplay:10.37,2013-06-28 11:50:00,
2013-06-28 08:01:00,71.8,71.2,29.82,SSW,204,0.0,1.0,98,0.00,OVC,,0.01,WeatherDisplay:10.37,2013-06-28 12:01:00,
2013-06-28 08:10:00,72.3,71.7,29.82,South,185,0.0,1.0,98,0.00,BKN,,0.01,WeatherDisplay:10.37,2013-06-28 12:10:00,
2013-06-28 08:20:00,72.6,72.0,29.81,South,179,0.0,1.0,98,0.00,BKN,,0.01,WeatherDisplay:10.37,2013-06-28 12:20:00,
2013-06-28 08:31:00,73.3,72.7,29.81,SSW,207,1.0,3.0,98,0.00,BKN,,0.01,WeatherDisplay:10.37,2013-06-28 12:31:00,
2013-06-28 08:40:00,74.1,73.2,29.81,SSW,207,0.0,3.0,97,0.00,BKN,,0.01,WeatherDisplay:10.37,2013-06-28 12:40:00,
2013-06-28 08:50:00,74.9,73.4,29.81,SSW,207,0.0,3.0,95,0.00,BKN,,0.01,WeatherDisplay:10.37,2013-06-28 12:50:00,
2013-06-28 09:01:00,75.7,72.9,29.81,WSW,258,2.0,9.0,91,0.00,BKN,,0.01,WeatherDisplay:10.37,2013-06-28 13:01:00,
2013-06-28 09:10:00,76.9,72.7,29.80,SW,234,3.0,8.0,87,0.00,SCT,,0.01,WeatherDisplay:10.37,2013-06-28 13:10:00,
2013-06-28 09:20:00,77.7,73.2,29.80,SW,227,3.0,8.0,86,0.00,SCT,,0.01,WeatherDisplay:10.37,2013-06-28 13:20:00,
2013-06-28 09:31:00,78.8,74.9,29.80,SSW,213,0.0,4.0,88,0.00,SCT,,0.01,WeatherDisplay:10.37,2013-06-28 13:31:00,
2013-06-28 09:40:00,79.7,74.4,29.80,SSW,213,0.0,3.0,84,0.00,SCT,,0.01,WeatherDisplay:10.37,2013-06-28 13:40:00,
2013-06-28 09:50:00,80.5,74.9,29.78,SSW,212,1.0,3.0,83,0.00,SCT,,0.01,WeatherDisplay:10.37,2013-06-28 13:50:00,
2013-06-28 10:01:00,81.2,75.2,29.78,NE,53,1.0,3.0,82,0.00,SCT,,0.01,WeatherDisplay:10.37,2013-06-28 14:01:00,
2013-06-28 10:10:00,81.8,75.1,29.78,SSE,154,0.0,9.0,80,0.00,CLR,,0.01,WeatherDisplay:10.37,2013-06-28 14:10:00,
2013-06-28 10:20:00,82.0,74.1,29.77,SW,225,1.0,6.0,77,0.00,CLR,,0.01,WeatherDisplay:10.37,2013-06-28 14:20:00,
2013-06-28 10:31:00,82.0,72.9,29.77,SW,235,3.0,6.0,74,0.00,CLR,,0.01,WeatherDisplay:10.37,2013-06-28 14:31:00,
2013-06-28 10:40:00,82.4,72.9,29.77,WSW,248,5.0,6.0,73,0.00,CLR,,0.01,WeatherDisplay:10.37,2013-06-28 14:40:00,
2013-06-28 10:50:00,82.7,73.6,29.77,WSW,240,5.0,7.0,74,0.00,CLR,,0.01,WeatherDisplay:10.37,2013-06-28 14:50:00,
2013-06-28 11:01:00,83.0,73.5,29.76,SW,229,1.0,8.0,73,0.00,CLR,,0.01,WeatherDisplay:10.37,2013-06-28 15:01:00,
2013-06-28 11:10:00,83.6,73.6,29.76,SW,235,1.0,6.0,72,0.00,CLR,,0.01,WeatherDisplay:10.37,2013-06-28 15:10:00,
2013-06-28 11:20:00,84.1,73.6,29.76,SSW,211,0.0,5.0,71,0.00,CLR,,0.01,WeatherDisplay:10.37,2013-06-28 15:20:00,
2013-06-28 11:31:00,84.5,74.1,29.77,SW,214,1.0,5.0,71,0.00,CLR,,0.01,WeatherDisplay:10.37,2013-06-28 15:31:00,
2013-06-28 11:40:00,85.3,74.0,29.76,SSW,208,2.0,7.0,69,0.00,CLR,,0.01,WeatherDisplay:10.37,2013-06-28 15:40:00,
2013-06-28 11:50:00,85.7,73.5,29.76,SSW,205,1.0,9.0,67,0.00,CLR,,0.01,WeatherDisplay:10.37,2013-06-28 15:50:00,
2013-06-28 12:01:00,86.2,73.5,29.76,South,182,3.0,7.0,66,0.00,CLR,,0.01,WeatherDisplay:10.37,2013-06-28 16:01:00,
2013-06-28 12:10:00,86.5,74.7,29.76,SW,232,1.0,8.0,68,0.00,BKN,,0.01,WeatherDisplay:10.37,2013-06-28 16:10:00,
2013-06-28 12:20:00,86.4,71.8,29.76,WSW,248,3.0,8.0,62,0.00,BKN,,0.01,WeatherDisplay:10.37,2013-06-28 16:20:00,
2013-06-28 12:31:00,86.5,73.3,29.76,WSW,245,1.0,10.0,65,0.00,BKN,,0.01,WeatherDisplay:10.37,2013-06-28 16:31:00,
2013-06-28 12:40:00,87.2,74.0,29.76,SSW,206,2.0,7.0,65,0.00,SCT,,0.01,WeatherDisplay:10.37,2013-06-28 16:40:00,
2013-06-28 12:50:00,87.1,73.5,29.76,West,259,3.0,8.0,64,0.00,SCT,,0.01,WeatherDisplay:10.37,2013-06-28 16:50:00,
2013-06-28 13:01:00,87.1,73.4,29.75,WSW,249,6.0,12.0,64,0.00,SCT,,0.01,WeatherDisplay:10.37,2013-06-28 17:01:00,
2013-06-28 13:10:00,87.3,75.0,29.75,WSW,247,3.0,9.0,67,0.00,CLR,,0.01,WeatherDisplay:10.37,2013-06-28 17:10:00,
2013-06-28 13:20:00,87.5,75.6,29.74,WSW,246,1.0,12.0,68,0.00,CLR,,0.01,WeatherDisplay:10.37,2013-06-28 17:20:00,
2013-06-28 13:31:00,88.7,76.8,29.73,WSW,243,5.0,8.0,68,0.00,CLR,,0.01,WeatherDisplay:10.37,2013-06-28 17:31:00,
2013-06-28 13:40:00,88.1,76.2,29.73,WSW,252,2.0,12.0,68,0.00,CLR,,0.01,WeatherDisplay:10.37,2013-06-28 17:40:00,
2013-06-28 13:50:00,87.9,76.5,29.72,SSW,208,3.0,10.0,69,0.00,SCT,,0.01,WeatherDisplay:10.37,2013-06-28 17:50:00,
2013-06-28 14:01:00,88.6,75.3,29.71,SSE,157,2.0,15.0,65,0.00,SCT,,0.01,WeatherDisplay:10.37,2013-06-28 18:01:00,
2013-06-28 14:10:00,89.6,75.8,29.70,SSE,153,0.0,6.0,64,0.00,SCT,,0.01,WeatherDisplay:10.37,2013-06-28 18:10:00,
2013-06-28 14:20:00,89.5,74.8,29.69,East,85,2.0,10.0,62,0.00,SCT,,0.01,WeatherDisplay:10.37,2013-06-28 18:20:00,
2013-06-28 14:31:00,90.2,74.9,29.69,SSE,152,7.0,13.0,61,0.00,SCT,,0.01,WeatherDisplay:10.37,2013-06-28 18:31:00,
2013-06-28 14:40:00,90.2,74.4,29.68,South,189,5.0,11.0,60,0.00,BKN,,0.01,WeatherDisplay:10.37,2013-06-28 18:40:00,
2013-06-28 14:50:00,90.6,74.3,29.67,SSW,192,2.0,13.0,59,0.00,BKN,,0.01,WeatherDisplay:10.37,2013-06-28 18:50:00,
2013-06-28 15:01:00,90.8,74.5,29.67,SSE,167,1.0,8.0,59,0.00,BKN,,0.01,WeatherDisplay:10.37,2013-06-28 19:01:00,
2013-06-28 15:10:00,90.1,73.4,29.67,WSW,252,7.0,16.0,58,0.00,SCT,,0.01,WeatherDisplay:10.37,2013-06-28 19:10:00,
2013-06-28 15:20:00,89.4,73.7,29.67,WSW,255,5.0,16.0,60,0.00,SCT,,0.01,WeatherDisplay:10.37,2013-06-28 19:20:00,
2013-06-28 15:31:00,89.0,71.3,29.67,SW,230,9.0,20.0,56,0.00,SCT,,0.01,WeatherDisplay:10.37,2013-06-28 19:31:00,
2013-06-28 15:40:00,88.5,71.9,29.67,WSW,243,1.0,20.0,58,0.00,SCT,,0.01,WeatherDisplay:10.37,2013-06-28 19:40:00,
2013-06-28 15:50:00,88.4,70.7,29.67,SW,232,9.0,15.0,56,0.00,SCT,,0.01,WeatherDisplay:10.37,2013-06-28 19:50:00,
2013-06-28 16:01:00,88.3,70.1,29.67,SW,225,3.0,18.0,55,0.00,SCT,,0.01,WeatherDisplay:10.37,2013-06-28 20:01:00,
2013-06-28 16:10:00,88.9,70.7,29.66,SSW,203,6.0,12.0,55,0.00,BKN,,0.01,WeatherDisplay:10.37,2013-06-28 20:10:00,
2013-06-28 16:20:00,89.1,71.9,29.66,ESE,123,3.0,12.0,57,0.00,BKN,,0.01,WeatherDisplay:10.37,2013-06-28 20:20:00,
2013-06-28 16:31:00,89.4,70.6,29.65,ESE,110,5.0,12.0,54,0.00,BKN,,0.01,WeatherDisplay:10.37,2013-06-28 20:31:00,
2013-06-28 16:40:00,89.4,72.1,29.65,ENE,64,2.0,6.0,57,0.00,SCT,,0.01,WeatherDisplay:10.37,2013-06-28 20:40:00,
2013-06-28 16:50:00,89.2,71.5,29.65,East,80,0.0,6.0,56,0.00,SCT,,0.01,WeatherDisplay:10.37,2013-06-28 20:50:00,
2013-06-28 17:01:00,90.0,71.7,29.65,South,179,0.0,7.0,55,0.00,SCT,,0.01,WeatherDisplay:10.37,2013-06-28 21:01:00,
2013-06-28 17:10:00,90.0,71.6,29.65,South,181,3.0,6.0,55,0.00,CLR,,0.01,WeatherDisplay:10.37,2013-06-28 21:10:00,
2013-06-28 17:20:00,89.0,74.3,29.65,SSW,204,0.0,7.0,62,0.00,CLR,,0.01,WeatherDisplay:10.37,2013-06-28 21:20:00,
2013-06-28 17:31:00,88.2,71.6,29.65,SW,226,1.0,10.0,58,0.00,CLR,,0.01,WeatherDisplay:10.37,2013-06-28 21:31:00,
2013-06-28 17:40:00,87.1,71.0,29.65,SSW,210,3.0,13.0,59,0.00,BKN,,0.01,WeatherDisplay:10.37,2013-06-28 21:40:00,
2013-06-28 17:50:00,86.3,71.3,29.65,South,191,2.0,7.0,61,0.00,SCT,,0.01,WeatherDisplay:10.37,2013-06-28 21:50:00,
2013-06-28 18:01:00,86.1,71.1,29.65,SW,235,2.0,8.0,61,0.00,SCT,,0.01,WeatherDisplay:10.37,2013-06-28 22:01:00,
2013-06-28 18:10:00,85.4,69.9,29.65,WSW,238,7.0,10.0,60,0.00,CLR,,0.01,WeatherDisplay:10.37,2013-06-28 22:10:00,
2013-06-28 18:20:00,85.7,70.2,29.64,WSW,254,7.0,14.0,60,0.00,CLR,,0.01,WeatherDisplay:10.37,2013-06-28 22:20:00,
2013-06-28 18:31:00,85.8,70.3,29.64,West,261,3.0,9.0,60,0.00,CLR,,0.01,WeatherDisplay:10.37,2013-06-28 22:31:00,
2013-06-28 18:40:00,85.6,70.1,29.64,SW,229,6.0,9.0,60,0.00,CLR,,0.01,WeatherDisplay:10.37,2013-06-28 22:40:00,
2013-06-28 18:51:00,85.4,70.9,29.64,SW,224,5.0,13.0,62,0.00,CLR,,0.01,WeatherDisplay:10.37,2013-06-28 22:51:00,
2013-06-28 19:01:00,85.5,71.0,29.64,SSW,211,2.0,9.0,62,0.00,CLR,,0.01,WeatherDisplay:10.37,2013-06-28 23:01:00,
2013-06-28 19:11:00,85.0,70.5,29.65,SSW,196,2.0,7.0,62,0.00,SCT,,0.01,WeatherDisplay:10.37,2013-06-28 23:11:00,
2013-06-28 19:20:00,84.6,71.1,29.65,SSE,164,1.0,4.0,64,0.00,SCT,,0.01,WeatherDisplay:10.37,2013-06-28 23:20:00,
2013-06-28 19:31:00,84.5,71.0,29.66,SSW,206,5.0,8.0,64,0.00,SCT,,0.01,WeatherDisplay:10.37,2013-06-28 23:31:00,
2013-06-28 19:40:00,84.2,71.2,29.66,South,188,2.0,6.0,65,0.00,SCT,,0.01,WeatherDisplay:10.37,2013-06-28 23:40:00,
2013-06-28 19:50:00,83.0,70.0,29.69,ENE,68,8.0,23.0,65,0.00,SCT,,0.01,WeatherDisplay:10.37,2013-06-28 23:50:00,
2013-06-28 20:01:00,76.7,69.3,29.69,NE,37,2.0,20.0,78,0.04,RA,,0.05,WeatherDisplay:10.37,2013-06-29 00:01:00,
2013-06-28 20:10:00,73.7,68.9,29.70,ENE,66,2.0,8.0,85,0.01,RA,,0.06,WeatherDisplay:10.37,2013-06-29 00:10:00,
2013-06-28 20:20:00,72.4,68.3,29.70,East,86,0.0,12.0,87,0.00,SCT,,0.06,WeatherDisplay:10.37,2013-06-29 00:20:00,
2013-06-28 20:31:00,71.8,68.4,29.69,WSW,244,3.0,6.0,89,0.01,RA,,0.07,WeatherDisplay:10.37,2013-06-29 00:31:00,
2013-06-28 20:40:00,71.4,68.0,29.70,SW,225,0.0,6.0,89,0.00,BKN,,0.07,WeatherDisplay:10.37,2013-06-29 00:40:00,
2013-06-28 20:50:00,71.0,67.6,29.70,South,188,0.0,6.0,89,0.00,BKN,,0.07,WeatherDisplay:10.37,2013-06-29 00:50:00,
2013-06-28 21:01:00,70.6,66.9,29.70,South,180,1.0,3.0,88,0.00,BKN,,0.07,WeatherDisplay:10.37,2013-06-29 01:01:00,
2013-06-28 21:10:00,70.3,66.9,29.70,South,187,0.0,2.0,89,0.00,OVC,,0.07,WeatherDisplay:10.37,2013-06-29 01:10:00,
2013-06-28 21:20:00,69.7,66.3,29.70,WSW,256,0.0,4.0,89,0.00,OVC,,0.07,WeatherDisplay:10.37,2013-06-29 01:20:00,
2013-06-28 21:31:00,69.3,66.5,29.70,NNW,340,0.0,1.0,91,0.00,OVC,,0.07,WeatherDisplay:10.37,2013-06-29 01:31:00,
2013-06-28 21:40:00,68.9,66.5,29.70,NNW,340,0.0,0.0,92,0.00,BKN,,0.07,WeatherDisplay:10.37,2013-06-29 01:40:00,
2013-06-28 21:50:00,68.5,66.0,29.70,NNW,340,1.0,2.0,92,0.00,BKN,,0.07,WeatherDisplay:10.37,2013-06-29 01:50:00,
2013-06-28 22:01:00,68.0,65.9,29.71,NNW,340,0.0,0.0,93,0.00,BKN,,0.07,WeatherDisplay:10.37,2013-06-29 02:01:00,
2013-06-28 22:10:00,67.8,65.7,29.71,NNW,340,0.0,1.0,93,0.00,BKN,,0.07,WeatherDisplay:10.37,2013-06-29 02:10:00,
2013-06-28 22:20:00,67.6,65.8,29.71,NNW,340,0.0,0.0,94,0.00,BKN,,0.07,WeatherDisplay:10.37,2013-06-29 02:20:00,
2013-06-28 22:31:00,67.5,65.8,29.72,NNW,340,0.0,0.0,94,0.00,BKN,,0.07,WeatherDisplay:10.37,2013-06-29 02:31:00,
2013-06-28 22:40:00,67.5,66.0,29.72,NNW,340,0.0,0.0,95,0.00,OVC,,0.07,WeatherDisplay:10.37,2013-06-29 02:40:00,
2013-06-28 22:50:00,67.4,65.9,29.72,NNW,340,0.0,1.0,95,0.00,OVC,,0.07,WeatherDisplay:10.37,2013-06-29 02:50:00,
2013-06-28 23:01:00,67.3,65.8,29.72,NNW,340,0.0,1.0,95,0.00,OVC,,0.07,WeatherDisplay:10.37,2013-06-29 03:01:00,
2013-06-28 23:11:00,67.1,65.6,29.71,NNW,340,0.0,0.0,95,0.00,OVC,,0.07,WeatherDisplay:10.37,2013-06-29 03:11:00,
2013-06-28 23:20:00,67.0,65.5,29.71,NNW,340,0.0,1.0,95,0.00,OVC,,0.07,WeatherDisplay:10.37,2013-06-29 03:20:00,
2013-06-28 23:31:00,66.9,65.4,29.71,NNW,340,0.0,0.0,95,0.00,OVC,,0.07,WeatherDisplay:10.37,2013-06-29 03:31:00,
2013-06-28 23:40:00,66.8,65.6,29.71,NNW,340,0.0,1.0,96,0.00,SCT,,0.07,WeatherDisplay:10.37,2013-06-29 03:40:00,
2013-06-28 23:50:00,66.8,65.6,29.71,NNW,340,0.0,2.0,96,0.00,CLR,,0.07,WeatherDisplay:10.37,2013-06-29 03:50:00,